User: anonymous   Login
Location: Unspecified
(0.0000°N, 0.0000°E)
Time: 06:53:25
(UTC+02:00)
Language:

ARIANE 5 R/B - Orbit

View from above orbital plane
View from above orbital plane
View from above satellite
View from above satellite

Ground track
Ground track

The orbit data is extracted from the following two-line orbital elements,

1 27387U 02009B   18116.77517222 -.00000012  00000-0  10917-4 0  9994
2 27387  98.5068  66.2839 0031270 286.6385  73.1368 14.35952444846546
Epoch (UTC): 26 April 2018 18:36:14
Eccentricity: 0.0031270
inclination: 98.5068°
perigee height: 749 km
apogee height: 794 km
right ascension of ascending node: 66.2839°
argument of perigee: 286.6385°
revolutions per day: 14.35952444
mean anomaly at epoch: 73.1368°
orbit number at epoch: 84654

The dashed part of the orbit path shows where the satellite is in the earth's shadow,  

DLR